Weather History for Dickinson, ND

Change the Weather History Date:

Tuesday, February 12, 2013

  Actual Average Record
Temperature  
Mean Temperature 30 °F 20 °F  
Max Temperature 40 °F 30 °F 62 °F (1921)
Min Temperature 19 °F 9 °F -39 °F (1905)
Degree Days  
Heating Degree Days 35 45  
Month to date heating degree days 463 556  
Since 1 July heating degree days 5343 5603  
Cooling Degree Days 0 0  
Month to date cooling degree days 0 0  
Year to date cooling degree days 0 0  
Moisture  
Dew Point 22 °F    
Average Humidity 72    
Maximum Humidity 84    
Minimum Humidity 59    
Precipitation  
Precipitation 0.00 in 0.01 in 0.44 in (1973)
Month to date precipitation T 0.10  
Year to date precipitation 0.08 0.40  
Sea Level Pressure  
Sea Level Pressure 29.91 in    
Wind  
Wind Speed 11 mph (West)    
Max Wind Speed 21 mph    
Max Gust Speed 24 mph    
Visibility 10 miles    
Events      
T = Trace of Precipitation, MM = Missing Value Source: NWS Daily Summary

Daily Weather History Graph

Daily Weather History Graph

Search for Another Location

Airport:

Trip Planner

Search our weather history database for the weather conditions in past years. The results will help you decide how hot, cold, wet, or windy it might be!

Date:

Astronomy

Feb. 12, 2013 Rise Set
Actual Time 6:59 AM MST 5:11 PM MST
Civil Twilight 6:28 AM MST 5:43 PM MST
Nautical Twilight 5:52 AM MST 6:19 PM MST
Astronomical Twilight 5:17 AM MST 6:54 PM MST
Moon 7:44 AM MST (2/12) 8:30 PM MST (2/12)
Length of Visible Light 11h 15m
Length of Day
10h 12m
Waxing Crescent, 8% of the Moon is Illuminated
Feb 12
Waxing Crescent
Feb 17
First Quarter
Feb 25
Full
Mar 4
Last Quarter
Mar 11
New

Hourly Weather History & Observations

Time (MST) Temp. Windchill Dew Point Humidity Pressure Visibility Wind Dir Wind Speed Gust Speed Precip Events Conditions
12:56 AM 24.1 °F 12.5 °F 17.1 °F 75% 29.88 in 10.0 mi West 12.7 mph - N/A   Clear
1:56 AM 23.0 °F 11.7 °F 17.1 °F 78% 29.88 in 10.0 mi WNW 11.5 mph - N/A   Clear
2:56 AM 19.0 °F 8.2 °F 15.1 °F 85% 29.89 in 10.0 mi West 9.2 mph - N/A   Clear
3:56 AM 19.9 °F 11.1 °F 15.1 °F 81% 29.90 in 10.0 mi West 6.9 mph - N/A   Clear
4:56 AM 21.0 °F 8.6 °F 16.0 °F 81% 29.91 in 10.0 mi West 12.7 mph - N/A   Clear
5:56 AM 21.0 °F 8.1 °F 16.0 °F 81% 29.93 in 10.0 mi West 13.8 mph - N/A   Clear
6:56 AM 19.9 °F 6.7 °F 16.0 °F 85% 29.95 in 10.0 mi West 13.8 mph - N/A   Clear
7:56 AM 24.1 °F 12.5 °F 18.0 °F 77% 29.95 in 10.0 mi West 12.7 mph - N/A   Clear
8:56 AM 28.9 °F 18.6 °F 19.9 °F 69% 29.96 in 10.0 mi West 12.7 mph - N/A   Clear
9:56 AM 30.9 °F 20.7 °F 23.0 °F 72% 29.96 in 10.0 mi West 13.8 mph - N/A   Mostly Cloudy
10:56 AM 34.0 °F 22.7 °F 23.0 °F 64% 29.96 in 10.0 mi WNW 19.6 mph - N/A   Mostly Cloudy
11:56 AM 37.0 °F 28.5 °F 25.0 °F 62% 29.94 in 10.0 mi WNW 13.8 mph - N/A   Clear
12:56 PM 37.9 °F 29.2 °F 25.0 °F 60% 29.93 in 10.0 mi WNW 15.0 mph - N/A   Clear
1:56 PM 37.9 °F 29.6 °F 26.1 °F 62% 29.92 in 10.0 mi West 13.8 mph - N/A   Overcast
2:56 PM 39.0 °F 31.8 °F 26.1 °F 60% 29.93 in 10.0 mi WNW 11.5 mph - N/A   Clear
3:56 PM 37.9 °F 31.5 °F 27.0 °F 65% 29.93 in 10.0 mi West 9.2 mph - N/A   Clear
4:56 PM 34.0 °F 27.2 °F 26.1 °F 73% 29.91 in 10.0 mi WSW 8.1 mph - N/A   Clear
5:56 PM 34.0 °F 26.6 °F 27.0 °F 75% 29.91 in 10.0 mi West 9.2 mph - N/A   Clear
6:56 PM 33.1 °F 24.9 °F 26.1 °F 75% 29.91 in 10.0 mi West 10.4 mph - N/A   Clear
7:56 PM 32.0 °F 25.6 °F 26.1 °F 79% 29.90 in 10.0 mi West 6.9 mph - N/A   Mostly Cloudy
8:56 PM 30.9 °F 23.5 °F 25.0 °F 79% 29.86 in 10.0 mi West 8.1 mph - N/A   Partly Cloudy
9:56 PM 33.1 °F 25.5 °F 26.1 °F 75% 29.83 in 10.0 mi West 9.2 mph - N/A   Overcast
10:56 PM 30.0 °F 21.7 °F 25.0 °F 82% 29.83 in 10.0 mi West 9.2 mph - N/A   Partly Cloudy
11:56 PM 28.0 °F 18.6 °F 24.1 °F 85% 29.81 in 10.0 mi West 10.4 mph - N/A   Clear